Погода в Иртышске

Казахстан     53°19′58″N   75°27′31″E
темп.,
°C
ветер,
м/с
пор.,
м/с
влажн.,
%
обл.,
%
осадки,
мм/ч
давл.,
гПа
погр.,
м
28 сентября, вт
вт2800:00+5в71264100 0.0 1021686
03:00+4всв61167100 0.0 1021677
06:00+4всв61164100 0.0 1021694
09:00+5в71165100 0.0 1020669
12:00+8в8105284 0.0 10191105
15:00+10в91040100 0.0 10161467
18:00+9в71041100 0.0 10141398
21:00+6вюв71171100 0.9 1014989
29 сентября, ср
ср2900:00+3всв61196100 5.4 1012580
03:00+3св5996100 2.4 1010447
06:00+3св5896100 3.4 1010375
09:00+2ссв4799100 1.0 1011389
12:00+4ссв3796100 1.6 1012632
15:00+5ссв4684100 0.3 1014723
18:00+6ссв2474100 0.4 1015396
21:00+4ссз118134 0.1 101610
30 сентября, чт
чт3000:00+3зсз22815 0.1 101616
03:00+2ссз33835 0.0 101728
06:00+1ссз33855 0.0 101824
09:00+4ссз237337 0.0 1018167
12:00+7ссз2256100 0.0 1018919
15:00+8ссз2250100 0.0 10171374
18:00+8с3456100 0.1 1016170
21:00+6с3563100 0.0 1016202
1 октября, пт
пт100:00+5с367199 0.0 1016241
03:00+3сз357888 0.0 1015120
06:00+2зсз488492 0.0 1015283
09:00+3зсз587396 0.0 1016648
12:00+5зсз7867100 0.2 10161174
15:00+6зсз81061100 0.4 10161380
18:00+6з61065100 0.6 10161173
21:00+4зюз5892100 0.1 1016691
2 октября, сб
сб200:00+2сз6995100 0.7 1017878
03:00+1сз7108174 0.1 1020627
06:00−1зсз5109139 0.1 1022370
09:00+1сз7983100 0.0 1024595
12:00+3зсз6867100 0.0 10251112
15:00+4зсз7956100 0.1 10261496
18:00+4з5862100 0.1 10271085
21:00+3з496492 0.1 1027375